Simultaneous Nadir Overpasses (SNOs) Predictions

Prediction of SNOs between NOAA-19 and TERRA Satellite Orbit:

Table of predicted SNOs for the next 14.0 days since TLE Epoch: 11/21/2020
Index Date (NOAA-19) Time (NOAA-19) Lat,Lon (NOAA-19) SZA (NOAA-19 ) Date (TERRA) Time (TERRA) Lat,Lon (TERRA) SZA (TERRA ) Distance(km) Time Diff (sec)
1 11/21/2020 06:27:53 -79.87, -66.29 78.50 11/21/2020 06:29:03 -79.86, -66.43 78.48 2.76 70
2 11/21/2020 07:18:47 79.84, 101.32 101.53 11/21/2020 07:18:29 79.87, 101.23 101.53 3.57 18
3 11/23/2020 12:52:07 -79.86,-162.12 78.02 11/23/2020 12:52:13 -79.86,-162.23 78.03 2.29 6
4 11/25/2020 18:25:17 79.88, -65.61 102.40 11/25/2020 18:25:55 79.89, -65.45 102.44 3.41 38
5 11/25/2020 19:16:21 -79.85, 102.02 77.59 11/25/2020 19:15:23 -79.86, 101.94 77.61 2.08 58
6 11/27/2020 23:58:35 -79.88, 31.20 77.21 11/27/2020 23:59:38 -79.89, 31.07 77.19 2.56 63
7 11/28/2020 00:49:30 79.87,-161.45 102.81 11/28/2020 00:49:04 79.88,-161.31 102.82 3.06 26
8 11/30/2020 06:22:49 -79.87, -64.70 76.84 11/30/2020 06:22:48 -79.88, -64.80 76.84 1.99 1
9 12/02/2020 11:55:59 79.89, 31.91 103.49 12/02/2020 11:56:30 79.89, 31.89 103.50 0.67 31
10 12/02/2020 12:47:03 -79.87,-160.61 76.51 12/02/2020 12:45:58 -79.86,-160.69 76.54 1.54 65
11 12/04/2020 17:29:18 -79.90, 128.50 76.23 12/04/2020 17:30:14 -79.88, 128.38 76.24 3.13 56
